24hr Temperature Data

Temp.
(°C)
Wind Chill
(°C)
Dew Point
(°C)
Solar Hours
(hh:mm)
Solar Radiation
(w/m2)
Min
8.5 6 3.3 00:00 0.0
Max
14.3 14.9 9.4 00:00 66.0
Range
5.8 8.9 6.1 n/a 66
Mode
9.0 10 4.1 00:00 0.0
Median
9.8 9.3 5.6 00:00 0.0
Mean
10.3 9.1 6.2 n/a 6.1
Std. Dev
1.4 1.9 2.1 n/a 10.4
Temp.
(°C)
Wind Chill
(°C)
Dew Point
(°C)
Solar Hours
(hh:mm)
Solar Radiation
(w/m2)
23/01 09:47 14.1 13.8 8.2 00:00 26.0
23/01 09:46 14.1 13.9 8.2 00:00 18.0
23/01 09:45 14.0 13.8 8.4 00:00 14.0
23/01 09:44 14.0 13.8 8.4 00:00 14.0
23/01 09:43 14.0 13.7 8.4 00:00 14.0
23/01 09:42 14.0 13.7 8.4 00:00 12.0
23/01 09:41 14.0 13.8 8.6 00:00 12.0
23/01 09:40 14.0 13.8 8.6 00:00 12.0
23/01 09:39 14.0 13.8 8.6 00:00 12.0
23/01 09:38 14.0 13.8 8.6 00:00 16.0
23/01 09:37 14.0 13.8 8.6 00:00 14.0
23/01 09:36 14.0 13.9 8.6 00:00 14.0
23/01 09:35 14.0 13.8 8.6 00:00 12.0
23/01 09:34 14.0 13.7 8.6 00:00 12.0
23/01 09:33 13.9 13.6 8.7 00:00 12.0
23/01 09:32 13.9 13.7 8.7 00:00 12.0
23/01 09:31 13.9 13.7 8.7 00:00 10.0
23/01 09:30 13.9 13.7 8.7 00:00 10.0
23/01 09:29 13.9 13.7 8.7 00:00 10.0
23/01 09:28 14.0 13.8 8.8 00:00 10.0
23/01 09:27 14.0 13.8 8.8 00:00 10.0
23/01 09:26 14.0 13.8 8.8 00:00 10.0
23/01 09:25 13.9 13.7 8.9 00:00 10.0
23/01 09:24 13.9 13.8 8.9 00:00 8.0
23/01 09:23 13.8 13.8 9 00:00 8.0
23/01 09:22 13.8 13.7 9 00:00 8.0
23/01 09:21 13.8 13.7 9 00:00 8.0
23/01 09:20 13.8 13.7 9.2 00:00 8.0
23/01 09:19 13.8 13.7 9.2 00:00 6.0
23/01 09:18 13.8 13.7 9.2 00:00 6.0
23/01 09:17 13.9 13.8 9.1 00:00 6.0
23/01 09:16 13.9 13.7 9.1 00:00 6.0
23/01 09:15 13.9 13.7 9.1 00:00 6.0
23/01 09:14 13.9 13.6 9.1 00:00 6.0
23/01 09:13 14.0 13.8 9.2 00:00 6.0
23/01 09:12 14.0 13.8 9.2 00:00 6.0
23/01 09:11 14.0 13.9 9.2 00:00 6.0
23/01 09:10 14.0 14 9.2 00:00 6.0
23/01 09:09 14.0 14.1 9.2 00:00 6.0
23/01 09:08 14.0 14 9.2 00:00 6.0
23/01 09:07 14.1 14.1 9.3 00:00 6.0
23/01 09:06 14.1 14 9.3 00:00 6.0
23/01 09:05 14.1 14 9.3 00:00 8.0
23/01 09:04 14.1 14 9.3 00:00 8.0
23/01 09:03 14.1 14.1 9.3 00:00 8.0
23/01 09:02 14.1 14.4 9.3 00:00 8.0
23/01 09:01 14.1 14.4 9.3 00:00 8.0
23/01 09:00 14.1 14.3 9.1 00:00 8.0
23/01 08:59 14.1 14.4 9.1 00:00 8.0
23/01 08:58 14.1 14.4 9.1 00:00 10.0
23/01 08:57 14.1 14.5 9.1 00:00 10.0
23/01 08:56 14.1 14.6 9.1 00:00 10.0
23/01 08:55 14.1 14.8 9.1 00:00 10.0
23/01 08:54 14.1 14.9 9.1 00:00 10.0
23/01 08:53 14.1 14.9 9.1 00:00 10.0
23/01 08:52 14.0 14.7 9 00:00 10.0
23/01 08:51 14.1 14.7 9.1 00:00 10.0
23/01 08:50 14.1 14.6 9.1 00:00 10.0
23/01 08:49 14.1 14.6 9.1 00:00 10.0
23/01 08:48 14.1 14.6 9.1 00:00 8.0
23/01 08:47 14.1 14.5 9.1 00:00 8.0
23/01 08:46 14.1 14.4 9.1 00:00 8.0
23/01 08:45 14.2 14.5 9 00:00 8.0
23/01 08:44 14.2 14.5 9 00:00 8.0
23/01 08:43 14.2 14.4 9 00:00 6.0
23/01 08:42 14.2 14.3 9 00:00 6.0
23/01 08:41 14.3 14.3 9.1 00:00 6.0
23/01 08:40 14.3 14.2 9.1 00:00 6.0
23/01 08:39 14.3 14.2 9.1 00:00 6.0
23/01 08:38 14.3 14.1 9.1 00:00 6.0
23/01 08:37 14.3 14.1 9.1 00:00 4.0
23/01 08:36 14.3 14.1 9.1 00:00 4.0
23/01 08:35 14.2 14 9 00:00 4.0
23/01 08:34 14.2 14 9 00:00 4.0
23/01 08:33 14.1 13.8 9.1 00:00 4.0
23/01 08:32 14.0 13.7 9 00:00 4.0
23/01 08:31 13.8 13.4 9 00:00 4.0
23/01 08:30 13.5 13.1 9.1 00:00 4.0
23/01 08:29 13.3 12.9 9.1 00:00 4.0
23/01 08:28 13.0 12.6 9.2 00:00 4.0
23/01 08:27 12.7 12.3 9.1 00:00 4.0
23/01 08:26 12.6 12.4 9 00:00 4.0
23/01 08:25 12.4 12.1 9 00:00 4.0
23/01 08:24 12.3 12 8.7 00:00 4.0
23/01 08:23 12.4 12.1 8.8 00:00 4.0
23/01 08:22 12.4 12.1 8.6 00:00 4.0
23/01 08:21 12.6 12.4 8.6 00:00 0.0
23/01 08:20 12.8 12.6 8.8 00:00 0.0
23/01 08:19 12.8 12.5 8.8 00:00 0.0
23/01 08:18 12.8 12.5 9.2 00:00 0.0
23/01 08:17 12.6 12.3 9 00:00 0.0
23/01 08:16 12.4 12 9 00:00 0.0
23/01 08:15 12.4 11.9 8.8 00:00 0.0
23/01 08:14 12.4 11.8 8.8 00:00 0.0
23/01 08:13 12.5 11.8 9.1 00:00 0.0
23/01 08:12 12.3 11.5 9.3 00:00 0.0
23/01 08:11 12.1 11.3 9.3 00:00 0.0
23/01 08:10 11.9 11.1 9.1 00:00 0.0
23/01 08:09 11.8 10.9 9 00:00 0.0
23/01 08:08 11.7 10.8 8.7 00:00 0.0
23/01 08:07 11.8 11 8.8 00:00 0.0
23/01 08:06 11.9 11.2 8.9 00:00 0.0
23/01 08:05 11.9 11.2 9.1 00:00 0.0
23/01 08:04 11.8 11 9 00:00 0.0
23/01 08:03 11.8 10.9 9 00:00 0.0
23/01 08:02 11.8 10.9 9 00:00 0.0
23/01 08:01 11.8 10.7 9 00:00 0.0
23/01 08:00 11.8 10.7 9 00:00 0.0
23/01 07:59 11.8 10.6 9 00:00 0.0
23/01 07:58 11.7 10.4 8.9 00:00 0.0
23/01 07:57 11.7 10.3 8.9 00:00 0.0
23/01 07:56 11.7 10.2 8.9 00:00 0.0
23/01 07:55 11.7 10.1 8.9 00:00 0.0
23/01 07:54 11.7 10.1 8.9 00:00 0.0
23/01 07:53 11.7 10 9.1 00:00 0.0
23/01 07:52 11.6 9.9 8.8 00:00 0.0
23/01 07:51 11.7 10 8.9 00:00 0.0
23/01 07:50 11.8 10.1 9 00:00 0.0
23/01 07:49 11.9 10.2 9.1 00:00 0.0
23/01 07:48 11.9 10.3 9.3 00:00 0.0
23/01 07:47 11.7 10.1 9.2 00:00 0.0
23/01 07:46 11.5 9.9 9 00:00 0.0
23/01 07:45 11.4 9.8 8.9 00:00 0.0
23/01 07:44 11.4 9.8 8.9 00:00 0.0
23/01 07:43 11.3 9.8 8.7 00:00 0.0
23/01 07:42 11.4 9.9 8.8 00:00 0.0
23/01 07:41 11.4 10 8.8 00:00 0.0
23/01 07:40 11.6 10.2 9 00:00 0.0
23/01 07:39 11.6 10.3 9.1 00:00 0.0
23/01 07:38 11.5 10.1 9 00:00 0.0
23/01 07:37 11.4 10 8.9 00:00 0.0
23/01 07:36 11.4 10 8.9 00:00 0.0
23/01 07:35 11.5 10.1 9 00:00 0.0
23/01 07:34 11.5 10 9.2 00:00 0.0
23/01 07:33 11.3 9.7 9 00:00 0.0
23/01 07:32 11.1 9.5 8.8 00:00 0.0
23/01 07:31 11.1 9.4 8.6 00:00 0.0
23/01 07:30 11.1 9.4 8.5 00:00 0.0
23/01 07:29 11.2 9.5 8.6 00:00 0.0
23/01 07:28 11.3 9.6 8.7 00:00 0.0
23/01 07:27 11.3 9.6 8.7 00:00 0.0
23/01 07:26 11.4 9.8 8.8 00:00 0.0
23/01 07:25 11.5 9.9 8.7 00:00 0.0
23/01 07:24 11.6 10 8.8 00:00 0.0
23/01 07:23 11.8 10.3 9 00:00 0.0
23/01 07:22 11.9 10.4 9.1 00:00 0.0
23/01 07:21 11.9 10.4 9.3 00:00 0.0
23/01 07:20 11.8 10.4 9.3 00:00 0.0
23/01 07:19 11.7 10.3 9.2 00:00 0.0
23/01 07:18 11.6 10.2 9.1 00:00 0.0
23/01 07:17 11.5 10.1 9 00:00 0.0
23/01 07:16 11.3 9.9 8.8 00:00 0.0
23/01 07:15 11.3 9.9 8.8 00:00 0.0
23/01 07:14 11.2 9.9 8.6 00:00 0.0
23/01 07:13 11.3 9.9 8.7 00:00 0.0
23/01 07:12 11.4 10 8.8 00:00 0.0
23/01 07:11 11.5 10.1 9 00:00 0.0
23/01 07:10 11.5 10.2 9.2 00:00 0.0
23/01 07:09 11.4 10.1 9.1 00:00 0.0
23/01 07:08 11.3 9.9 9 00:00 0.0
23/01 07:07 11.3 9.9 9 00:00 0.0
23/01 07:06 11.2 9.8 8.9 00:00 0.0
23/01 07:05 11.1 9.7 8.8 00:00 0.0
23/01 07:04 11.0 9.6 8.7 00:00 0.0
23/01 07:03 11.1 9.7 8.6 00:00 0.0
23/01 07:02 11.1 9.8 8.6 00:00 0.0
23/01 07:01 11.2 9.9 8.7 00:00 0.0
23/01 07:00 11.2 10 8.9 00:00 0.0
23/01 06:59 11.2 10 8.7 00:00 0.0
23/01 06:58 11.3 10.1 8.8 00:00 0.0
23/01 06:57 11.4 10.3 8.9 00:00 0.0
23/01 06:56 11.5 10.4 9 00:00 0.0
23/01 06:55 11.5 10.4 9.2 00:00 0.0
23/01 06:54 11.5 10.4 9.2 00:00 0.0
23/01 06:53 11.4 10.2 9.1 00:00 0.0
23/01 06:52 11.4 10.2 9.1 00:00 0.0
23/01 06:51 11.3 10.1 9 00:00 0.0
23/01 06:50 11.2 9.9 8.9 00:00 0.0
23/01 06:49 11.2 9.9 8.9 00:00 0.0
23/01 06:48 11.2 9.9 8.9 00:00 0.0
23/01 06:47 11.2 9.8 8.9 00:00 0.0
23/01 06:46 11.2 9.9 8.7 00:00 0.0
23/01 06:45 11.2 9.9 8.7 00:00 0.0
23/01 06:44 11.2 9.9 8.7 00:00 0.0
23/01 06:43 11.3 10 8.8 00:00 0.0
23/01 06:42 11.3 10 9 00:00 0.0
23/01 06:41 11.3 10.1 9 00:00 0.0
23/01 06:40 11.3 10.1 9 00:00 0.0
23/01 06:39 11.3 10.1 9 00:00 0.0
23/01 06:38 11.3 10.2 9 00:00 0.0
23/01 06:37 11.3 10.1 9 00:00 0.0
23/01 06:36 11.3 10.2 8.8 00:00 4.0
23/01 06:35 11.3 10.1 8.8 00:00 0.0
23/01 06:34 11.4 10.2 8.9 00:00 0.0
23/01 06:33 11.4 10.2 8.9 00:00 0.0
23/01 06:32 11.4 10.3 8.9 00:00 0.0
23/01 06:31 11.5 10.3 9 00:00 0.0
23/01 06:30 11.7 10.5 9.4 00:00 0.0
23/01 06:29 11.6 10.4 9.3 00:00 0.0
23/01 06:28 11.5 10.3 9.2 00:00 0.0
23/01 06:27 11.5 10.3 9.2 00:00 0.0
23/01 06:26 11.6 10.4 9.3 00:00 0.0
23/01 06:25 11.5 10.2 9.2 00:00 0.0
23/01 06:24 11.5 10.2 9.2 00:00 0.0
23/01 06:23 11.4 10 9.1 00:00 0.0
23/01 06:22 11.5 10.1 9.2 00:00 0.0
23/01 06:21 11.4 10 9.1 00:00 0.0
23/01 06:20 11.4 10 9.1 00:00 0.0
23/01 06:19 11.4 10 9.1 00:00 0.0
23/01 06:18 11.3 9.9 9 00:00 0.0
23/01 06:17 11.3 9.9 9 00:00 4.0
23/01 06:16 11.4 9.9 9.1 00:00 0.0
23/01 06:15 11.4 9.9 9.1 00:00 0.0
23/01 06:14 11.4 9.9 9.1 00:00 0.0
23/01 06:13 11.4 9.9 9.1 00:00 0.0
23/01 06:12 11.4 10 9.1 00:00 0.0
23/01 06:11 11.4 10 9.1 00:00 0.0
23/01 06:10 11.5 10.1 9.2 00:00 0.0
23/01 06:09 11.5 10.1 9.2 00:00 0.0
23/01 06:08 11.5 10.1 9.2 00:00 0.0
23/01 06:07 11.4 10 9.3 00:00 0.0
23/01 06:06 11.4 10 9.1 00:00 0.0
23/01 06:05 11.4 10.1 9.1 00:00 0.0
23/01 06:04 11.5 10.2 9.2 00:00 0.0
23/01 06:03 11.4 10.1 9.3 00:00 0.0
23/01 06:02 11.4 10.1 9.1 00:00 0.0
23/01 06:01 11.4 10.1 9.1 00:00 0.0
23/01 06:00 11.5 10.3 9.4 00:00 0.0
23/01 05:59 11.5 10.3 9.4 00:00 0.0
23/01 05:58 11.4 10.2 9.3 00:00 0.0
23/01 05:57 11.4 10.2 9.3 00:00 0.0
23/01 05:56 11.4 10.3 9.3 00:00 0.0
23/01 05:55 11.4 10.3 9.3 00:00 0.0
23/01 05:54 11.4 10.3 9.3 00:00 0.0
23/01 05:53 11.4 10.3 9.3 00:00 0.0
23/01 05:52 11.3 10.2 9.2 00:00 0.0
23/01 05:51 11.3 10.2 9.2 00:00 0.0
23/01 05:50 11.3 10.2 9.2 00:00 0.0
23/01 05:49 11.3 10.2 9.2 00:00 0.0
23/01 05:48 11.3 10.3 9.2 00:00 0.0
23/01 05:47 11.3 10.3 9.2 00:00 0.0
23/01 05:46 11.2 10.2 9.1 00:00 0.0
23/01 05:45 11.2 10.2 9.1 00:00 4.0
23/01 05:44 11.2 10.2 9.1 00:00 0.0
23/01 05:43 11.3 10.3 9.2 00:00 0.0
23/01 05:42 11.2 10.2 9.1 00:00 0.0
23/01 05:41 11.3 10.3 9.4 00:00 0.0
23/01 05:40 11.2 10.2 9.3 00:00 0.0
23/01 05:39 11.2 10.3 9.3 00:00 0.0
23/01 05:38 11.1 10.1 9.2 00:00 0.0
23/01 05:37 11.0 10 8.9 00:00 0.0
23/01 05:36 11.0 10 8.9 00:00 0.0
23/01 05:35 11.1 10.1 9 00:00 0.0
23/01 05:34 11.1 10.1 9 00:00 0.0
23/01 05:33 11.1 10.1 9 00:00 0.0
23/01 05:32 11.1 10.1 9 00:00 4.0
23/01 05:31 11.1 10.1 9 00:00 0.0
23/01 05:30 11.1 10.2 9 00:00 0.0
23/01 05:29 11.1 10.1 9 00:00 0.0
23/01 05:28 11.2 10.2 9.1 00:00 0.0
23/01 05:27 11.2 10.1 9.1 00:00 0.0
23/01 05:26 11.2 10.1 9.1 00:00 0.0
23/01 05:25 11.1 10 9 00:00 0.0
23/01 05:24 11.1 10 9 00:00 0.0
23/01 05:23 11.1 10 9 00:00 0.0
23/01 05:22 11.1 10 9 00:00 0.0
23/01 05:21 11.1 10 9 00:00 0.0
23/01 05:20 11.1 10 9 00:00 0.0
23/01 05:19 11.2 10.2 9.1 00:00 0.0
23/01 05:18 11.2 10.3 9.1 00:00 0.0
23/01 05:17 11.2 10.3 9.1 00:00 0.0
23/01 05:16 11.2 10.4 9.1 00:00 0.0
23/01 05:15 11.2 10.4 9.1 00:00 0.0
23/01 05:14 11.2 10.5 9.1 00:00 0.0
23/01 05:13 11.2 10.4 9.1 00:00 0.0
23/01 05:12 11.2 10.4 9.1 00:00 0.0
23/01 05:11 11.2 10.4 9.1 00:00 0.0
23/01 05:10 11.2 10.4 9.1 00:00 0.0
23/01 05:09 11.2 10.4 9.1 00:00 0.0
23/01 05:08 11.2 10.4 8.9 00:00 0.0
23/01 05:07 11.2 10.4 8.9 00:00 0.0
23/01 05:06 11.2 10.4 9.1 00:00 0.0
23/01 05:05 11.2 10.4 8.9 00:00 0.0
23/01 05:04 11.2 10.4 8.9 00:00 0.0
23/01 05:03 11.2 10.5 8.9 00:00 0.0
23/01 05:02 11.2 10.6 8.9 00:00 0.0
23/01 05:01 11.2 10.6 8.9 00:00 0.0
23/01 05:00 11.2 10.6 8.9 00:00 0.0
23/01 04:59 11.1 10.5 8.8 00:00 0.0
23/01 04:58 11.2 10.6 8.9 00:00 0.0
23/01 04:57 11.2 10.6 8.9 00:00 0.0
23/01 04:56 11.2 10.6 8.9 00:00 0.0
23/01 04:55 11.2 10.6 8.9 00:00 0.0
23/01 04:54 11.3 10.7 9 00:00 0.0
23/01 04:53 11.3 10.8 9 00:00 0.0
23/01 04:52 11.3 10.8 9 00:00 0.0
23/01 04:51 11.3 10.7 9 00:00 0.0
23/01 04:50 11.3 10.7 9 00:00 0.0
23/01 04:49 11.3 10.7 9 00:00 0.0
23/01 04:48 11.2 10.6 8.9 00:00 0.0
23/01 04:47 11.2 10.6 8.9 00:00 0.0
23/01 04:46 11.2 10.6 8.9 00:00 0.0
23/01 04:45 11.2 10.6 8.9 00:00 0.0
23/01 04:44 11.2 10.6 8.9 00:00 0.0
23/01 04:43 11.2 10.5 8.9 00:00 0.0
23/01 04:42 11.2 10.5 8.9 00:00 0.0
23/01 04:41 11.2 10.5 8.7 00:00 0.0
23/01 04:40 11.2 10.5 8.7 00:00 0.0
23/01 04:39 11.2 10.5 8.7 00:00 0.0
23/01 04:38 11.1 10.4 8.6 00:00 0.0
23/01 04:37 11.1 10.4 8.6 00:00 0.0
23/01 04:36 11.2 10.4 8.7 00:00 0.0
23/01 04:35 11.2 10.4 8.7 00:00 0.0
23/01 04:34 11.2 10.4 8.7 00:00 0.0
23/01 04:33 11.2 10.4 8.7 00:00 0.0
23/01 04:32 11.2 10.5 8.7 00:00 0.0
23/01 04:31 11.2 10.5 8.7 00:00 0.0
23/01 04:30 11.2 10.6 8.7 00:00 0.0
23/01 04:29 11.2 10.6 8.6 00:00 0.0
23/01 04:28 11.2 10.6 8.6 00:00 0.0
23/01 04:27 11.3 10.7 8.7 00:00 0.0
23/01 04:26 11.3 10.7 8.7 00:00 0.0
23/01 04:25 11.3 10.7 8.7 00:00 0.0
23/01 04:24 11.4 10.7 8.8 00:00 0.0
23/01 04:23 11.4 10.7 8.8 00:00 0.0
23/01 04:22 11.4 10.7 8.8 00:00 0.0
23/01 04:21 11.4 10.6 8.8 00:00 0.0
23/01 04:20 11.4 10.6 8.8 00:00 0.0
23/01 04:19 11.4 10.6 8.8 00:00 0.0
23/01 04:18 11.4 10.5 8.8 00:00 0.0
23/01 04:17 11.4 10.5 8.8 00:00 0.0
23/01 04:16 11.4 10.5 8.8 00:00 0.0
23/01 04:15 11.5 10.6 8.9 00:00 0.0
23/01 04:14 11.4 10.5 8.8 00:00 0.0
23/01 04:13 11.4 10.5 8.8 00:00 0.0
23/01 04:12 11.4 10.5 8.8 00:00 0.0
23/01 04:11 11.4 10.6 8.8 00:00 0.0
23/01 04:10 11.4 10.6 8.8 00:00 0.0
23/01 04:09 11.5 10.7 8.9 00:00 0.0
23/01 04:08 11.5 10.7 8.9 00:00 4.0
23/01 04:07 11.5 10.7 8.9 00:00 0.0
23/01 04:06 11.5 10.7 8.9 00:00 0.0
23/01 04:05 11.5 10.7 8.9 00:00 0.0
23/01 04:04 11.5 10.7 8.9 00:00 0.0
23/01 04:03 11.5 10.7 8.9 00:00 0.0
23/01 04:02 11.5 10.6 8.9 00:00 0.0
23/01 04:01 11.5 10.6 8.9 00:00 0.0
23/01 04:00 11.5 10.6 8.9 00:00 0.0
23/01 03:59 11.5 10.6 8.9 00:00 0.0
23/01 03:58 11.4 10.5 8.8 00:00 0.0
23/01 03:57 11.4 10.5 8.8 00:00 0.0
23/01 03:56 11.4 10.5 8.8 00:00 0.0
23/01 03:55 11.5 10.6 8.9 00:00 0.0
23/01 03:54 11.5 10.6 8.7 00:00 0.0
23/01 03:53 11.4 10.5 8.6 00:00 0.0
23/01 03:52 11.5 10.6 8.7 00:00 0.0
23/01 03:51 11.5 10.6 8.9 00:00 0.0
23/01 03:50 11.4 10.5 8.8 00:00 0.0
23/01 03:49 11.4 10.6 8.8 00:00 0.0
23/01 03:48 11.4 10.6 8.8 00:00 0.0
23/01 03:47 11.4 10.6 8.6 00:00 0.0
23/01 03:46 11.4 10.6 8.6 00:00 0.0
23/01 03:45 11.4 10.6 8.6 00:00 0.0
23/01 03:44 11.4 10.6 8.6 00:00 0.0
23/01 03:43 11.4 10.6 8.6 00:00 0.0
23/01 03:42 11.4 10.6 8.6 00:00 0.0
23/01 03:41 11.4 10.7 8.6 00:00 0.0
23/01 03:40 11.4 10.7 8.6 00:00 0.0
23/01 03:39 11.4 10.7 8.6 00:00 0.0
23/01 03:38 11.4 10.7 8.6 00:00 0.0
23/01 03:37 11.4 10.7 8.6 00:00 0.0
23/01 03:36 11.4 10.6 8.6 00:00 0.0
23/01 03:35 11.4 10.6 8.6 00:00 0.0
23/01 03:34 11.4 10.6 8.6 00:00 0.0
23/01 03:33 11.4 10.5 8.6 00:00 0.0
23/01 03:32 11.4 10.5 8.6 00:00 0.0
23/01 03:31 11.4 10.3 8.6 00:00 0.0
23/01 03:30 11.4 10.3 8.6 00:00 0.0
23/01 03:29 11.4 10.2 8.6 00:00 0.0
23/01 03:28 11.4 10.2 8.6 00:00 0.0
23/01 03:27 11.4 10.1 8.6 00:00 0.0
23/01 03:26 11.4 10 8.6 00:00 0.0
23/01 03:25 11.4 10 8.6 00:00 0.0
23/01 03:24 11.4 10.1 8.6 00:00 0.0
23/01 03:23 11.4 10 8.6 00:00 0.0
23/01 03:22 11.4 10.1 8.6 00:00 0.0
23/01 03:21 11.4 10 8.6 00:00 0.0
23/01 03:20 11.4 10 8.6 00:00 0.0
23/01 03:19 11.4 10.1 8.6 00:00 0.0
23/01 03:18 11.3 10 8.5 00:00 0.0
23/01 03:17 11.4 10.1 8.6 00:00 0.0
23/01 03:16 11.4 10.1 8.6 00:00 0.0
23/01 03:15 11.4 10.2 8.6 00:00 0.0
23/01 03:14 11.4 10.1 8.6 00:00 0.0
23/01 03:13 11.4 10.1 8.6 00:00 0.0
23/01 03:12 11.4 10.1 8.6 00:00 0.0
23/01 03:11 11.4 10.1 8.6 00:00 0.0
23/01 03:10 11.4 10.1 8.6 00:00 0.0
23/01 03:09 11.4 10 8.6 00:00 0.0
23/01 03:08 11.4 10 8.6 00:00 0.0
23/01 03:07 11.4 10 8.6 00:00 0.0
23/01 03:06 11.3 9.8 8.5 00:00 0.0
23/01 03:05 11.4 9.9 8.6 00:00 0.0
23/01 03:04 11.3 9.8 8.5 00:00 0.0
23/01 03:03 11.3 9.7 8.5 00:00 0.0
23/01 03:02 11.3 9.7 8.5 00:00 0.0
23/01 03:01 11.4 9.8 8.6 00:00 0.0
23/01 03:00 11.3 9.6 8.5 00:00 0.0
23/01 02:59 11.3 9.6 8.5 00:00 0.0
23/01 02:58 11.3 9.6 8.5 00:00 0.0
23/01 02:57 11.3 9.6 8.5 00:00 0.0
23/01 02:56 11.3 9.7 8.5 00:00 0.0
23/01 02:55 11.3 9.7 8.5 00:00 0.0
23/01 02:54 11.3 9.7 8.5 00:00 0.0
23/01 02:53 11.3 9.7 8.5 00:00 0.0
23/01 02:52 11.3 9.8 8.5 00:00 0.0
23/01 02:51 11.3 9.8 8.5 00:00 0.0
23/01 02:50 11.3 9.8 8.5 00:00 0.0
23/01 02:49 11.3 9.8 8.5 00:00 0.0
23/01 02:48 11.3 9.8 8.5 00:00 0.0
23/01 02:47 11.3 9.8 8.3 00:00 0.0
23/01 02:46 11.3 9.8 8.3 00:00 0.0
23/01 02:45 11.3 9.7 8.3 00:00 0.0
23/01 02:44 11.3 9.7 8.3 00:00 0.0
23/01 02:43 11.3 9.7 8.3 00:00 0.0
23/01 02:42 11.3 9.7 8.3 00:00 0.0
23/01 02:41 11.3 9.6 8.3 00:00 0.0
23/01 02:40 11.3 9.6 8.3 00:00 0.0
23/01 02:39 11.3 9.6 8.3 00:00 0.0
23/01 02:38 11.3 9.6 8.3 00:00 0.0
23/01 02:37 11.3 9.6 8.3 00:00 0.0
23/01 02:36 11.3 9.7 8.3 00:00 0.0
23/01 02:35 11.3 9.6 8.3 00:00 0.0
23/01 02:34 11.3 9.6 8.3 00:00 0.0
23/01 02:33 11.3 9.6 8.3 00:00 0.0
23/01 02:32 11.3 9.6 8.3 00:00 0.0
23/01 02:31 11.3 9.6 8.1 00:00 0.0
23/01 02:30 11.3 9.6 8.1 00:00 0.0
23/01 02:29 11.3 9.6 8.1 00:00 0.0
23/01 02:28 11.3 9.7 8.1 00:00 0.0
23/01 02:27 11.3 9.7 8.1 00:00 0.0
23/01 02:26 11.3 9.7 8.1 00:00 0.0
23/01 02:25 11.3 9.6 8.1 00:00 0.0
23/01 02:24 11.3 9.7 8.1 00:00 0.0
23/01 02:23 11.3 9.7 8.1 00:00 0.0
23/01 02:22 11.3 9.7 8.1 00:00 0.0
23/01 02:21 11.3 9.7 8.1 00:00 0.0
23/01 02:20 11.3 9.7 8.1 00:00 0.0
23/01 02:19 11.3 9.7 8.1 00:00 0.0
23/01 02:18 11.3 9.8 8.1 00:00 0.0
23/01 02:17 11.3 9.8 8.1 00:00 0.0
23/01 02:16 11.3 9.8 8.1 00:00 0.0
23/01 02:15 11.3 9.8 8.3 00:00 0.0
23/01 02:14 11.3 9.8 8.1 00:00 0.0
23/01 02:13 11.2 9.8 8 00:00 0.0
23/01 02:12 11.2 9.8 8 00:00 0.0
23/01 02:11 11.2 9.8 8 00:00 0.0
23/01 02:10 11.2 9.9 8 00:00 0.0
23/01 02:09 11.2 9.9 8 00:00 0.0
23/01 02:08 11.3 10.1 8.1 00:00 0.0
23/01 02:07 11.2 10 8 00:00 0.0
23/01 02:06 11.2 10 8 00:00 0.0
23/01 02:05 11.3 10.1 8.1 00:00 0.0
23/01 02:04 11.3 10.1 8.1 00:00 0.0
23/01 02:03 11.3 10.1 8.1 00:00 0.0
23/01 02:02 11.3 10.1 8.1 00:00 0.0
23/01 02:01 11.3 10.1 8.1 00:00 0.0
23/01 02:00 11.2 10 8 00:00 0.0
23/01 01:59 11.2 10 8 00:00 0.0
23/01 01:58 11.2 9.9 8 00:00 0.0
23/01 01:57 11.2 9.9 7.8 00:00 0.0
23/01 01:56 11.2 9.8 7.8 00:00 0.0
23/01 01:55 11.2 9.7 7.8 00:00 0.0
23/01 01:54 11.2 9.7 7.8 00:00 0.0
23/01 01:52 11.2 9.6 7.8 00:00 0.0
23/01 01:51 11.2 9.5 7.8 00:00 0.0
23/01 01:50 11.2 9.5 7.8 00:00 0.0
23/01 01:49 11.2 9.5 7.8 00:00 0.0
23/01 01:48 11.2 9.5 8 00:00 0.0
23/01 01:47 11.2 9.5 8 00:00 0.0
23/01 01:46 11.2 9.5 8 00:00 0.0
23/01 01:45 11.1 9.4 7.9 00:00 0.0
23/01 01:43 11.1 9.4 7.9 00:00 0.0
23/01 01:42 11.1 9.5 7.9 00:00 0.0
23/01 01:40 11.1 9.4 7.9 00:00 0.0
23/01 01:39 11.1 9.4 7.9 00:00 0.0
23/01 01:38 11.1 9.4 7.9 00:00 0.0
23/01 01:37 11.1 9.4 7.9 00:00 0.0
23/01 01:36 11.1 9.4 7.9 00:00 0.0
23/01 01:35 11.0 9.3 7.8 00:00 0.0
23/01 01:34 11.0 9.4 7.8 00:00 0.0
23/01 01:33 11.0 9.4 7.8 00:00 0.0
23/01 01:32 11.0 9.5 7.6 00:00 0.0
23/01 01:31 11.0 9.5 7.6 00:00 0.0
23/01 01:30 11.0 9.5 7.6 00:00 0.0
23/01 01:29 11.0 9.5 7.6 00:00 0.0
23/01 01:28 11.0 9.5 7.6 00:00 0.0
23/01 01:27 11.0 9.5 7.6 00:00 0.0
23/01 01:26 11.0 9.5 7.6 00:00 0.0
23/01 01:25 11.0 9.4 7.6 00:00 0.0
23/01 01:24 11.0 9.5 7.6 00:00 0.0
23/01 01:23 11.0 9.4 7.6 00:00 0.0
23/01 01:22 11.0 9.5 7.6 00:00 0.0
23/01 01:21 11.0 9.5 7.6 00:00 0.0
23/01 01:20 11.0 9.6 7.6 00:00 0.0
23/01 01:19 11.0 9.6 7.6 00:00 0.0
23/01 01:18 11.0 9.6 7.6 00:00 0.0
23/01 01:17 11.0 9.6 7.6 00:00 0.0
23/01 01:16 11.0 9.7 7.6 00:00 0.0
23/01 01:15 11.0 9.7 7.6 00:00 0.0
23/01 01:14 11.0 9.8 7.6 00:00 0.0
23/01 01:13 11.0 9.8 7.6 00:00 0.0
23/01 01:12 11.0 9.9 7.5 00:00 0.0
23/01 01:11 11.0 9.9 7.5 00:00 0.0
23/01 01:10 11.0 9.9 7.5 00:00 0.0
23/01 01:09 11.0 9.9 7.5 00:00 0.0
23/01 01:08 11.1 10 7.6 00:00 0.0
23/01 01:07 11.1 10 7.6 00:00 0.0
23/01 01:06 11.0 9.9 7.5 00:00 0.0
23/01 01:05 11.0 9.9 7.5 00:00 0.0
23/01 01:04 11.0 10 7.5 00:00 0.0
23/01 01:03 11.0 10 7.5 00:00 0.0
23/01 01:02 11.0 10 7.5 00:00 0.0
23/01 01:01 11.0 9.9 7.5 00:00 0.0
23/01 01:00 11.0 9.9 7.5 00:00 0.0
23/01 00:59 11.0 9.9 7.5 00:00 0.0
23/01 00:58 11.0 10 7.5 00:00 0.0
23/01 00:57 11.0 9.9 7.3 00:00 0.0
23/01 00:56 11.0 9.9 7.3 00:00 0.0
23/01 00:55 11.0 10 7.3 00:00 0.0
23/01 00:54 11.0 10 7.3 00:00 0.0
23/01 00:53 11.1 10.1 7.4 00:00 0.0
23/01 00:52 11.1 10 7.4 00:00 0.0
23/01 00:51 11.1 10 7.4 00:00 0.0
23/01 00:50 11.1 10 7.2 00:00 0.0
23/01 00:49 11.1 10 7.2 00:00 0.0
23/01 00:48 11.1 9.9 7.2 00:00 0.0
23/01 00:47 11.1 10 7.2 00:00 0.0
23/01 00:46 11.1 10 7.2 00:00 0.0
23/01 00:45 11.1 10 7.2 00:00 0.0
23/01 00:44 11.1 10 7.2 00:00 0.0
23/01 00:43 11.2 10.2 7.3 00:00 0.0
23/01 00:42 11.2 10.3 7.3 00:00 0.0
23/01 00:41 11.2 10.3 7.3 00:00 0.0
23/01 00:37 11.2 10.5 7.1 00:00 0.0
23/01 00:36 11.3 10.7 7.2 00:00 0.0
23/01 00:35 11.3 10.7 7.2 00:00 0.0
23/01 00:34 11.3 10.7 7.2 00:00 0.0
23/01 00:33 11.3 10.7 7 00:00 0.0
23/01 00:32 11.3 10.7 7 00:00 0.0
23/01 00:31 11.4 10.8 7.1 00:00 0.0
23/01 00:30 11.4 10.8 7.1 00:00 0.0
23/01 00:29 11.4 10.8 7.1 00:00 0.0
23/01 00:28 11.4 10.8 7.1 00:00 0.0
23/01 00:27 11.4 10.7 7.1 00:00 0.0
23/01 00:26 11.4 10.7 7.1 00:00 0.0
23/01 00:25 11.4 10.6 7.1 00:00 0.0
23/01 00:24 11.4 10.6 7.1 00:00 0.0
23/01 00:23 11.4 10.7 7.1 00:00 0.0
23/01 00:22 11.4 10.7 7.1 00:00 0.0
23/01 00:21 11.4 10.7 7.1 00:00 0.0
23/01 00:20 11.4 10.7 7.1 00:00 0.0
23/01 00:19 11.4 10.8 7.1 00:00 0.0
23/01 00:18 11.4 10.9 7.1 00:00 0.0
23/01 00:17 11.3 10.8 7 00:00 0.0
23/01 00:16 11.3 10.9 7 00:00 0.0
23/01 00:15 11.3 10.9 7 00:00 0.0
23/01 00:14 11.3 11.1 7 00:00 0.0
23/01 00:13 11.3 11.2 7 00:00 0.0
23/01 00:12 11.3 11.3 7 00:00 0.0
23/01 00:11 11.2 11.2 6.9 00:00 0.0
23/01 00:10 11.2 11.2 6.9 00:00 0.0
23/01 00:09 11.2 11.3 6.7 00:00 0.0
23/01 00:08 11.2 11.2 6.7 00:00 0.0
23/01 00:07 11.2 11.3 6.9 00:00 0.0
23/01 00:06 11.2 11.4 6.7 00:00 0.0
23/01 00:05 11.2 11.4 6.9 00:00 0.0
23/01 00:04 11.1 11.6 6.6 00:00 0.0
23/01 00:03 11.1 11.6 6.6 00:00 0.0
23/01 00:02 11.1 11.6 6.6 00:00 0.0
23/01 00:01 11.2 11.7 6.7 00:00 0.0
23/01 00:00 11.2 11.7 6.7 00:00 0.0
22/01 23:59 11.2 11.8 6.7 00:00 0.0
22/01 23:58 11.1 11.7 6.6 00:00 0.0
22/01 23:57 11.1 11.8 6.6 00:00 0.0
22/01 23:56 11.0 11.7 6.3 00:00 0.0
22/01 23:55 11.0 11.8 6.3 00:00 0.0
22/01 23:54 11.0 11.8 6.3 00:00 0.0
22/01 23:53 11.0 11.7 6.1 00:00 0.0
22/01 23:52 11.1 11.8 6.2 00:00 0.0
22/01 23:51 11.1 11.8 6.2 00:00 0.0
22/01 23:50 11.1 11.8 6.4 00:00 0.0
22/01 23:49 11.1 11.9 6.2 00:00 0.0
22/01 23:48 11.1 11.8 6.2 00:00 0.0
22/01 23:47 11.1 11.8 6.4 00:00 0.0
22/01 23:46 11.0 11.6 6.3 00:00 0.0
22/01 23:45 11.0 11.6 6.1 00:00 0.0
22/01 23:44 11.0 11.7 6.1 00:00 0.0
22/01 23:43 11.0 11.7 6.1 00:00 0.0
22/01 23:42 11.0 11.6 6.3 00:00 0.0
22/01 23:41 11.0 11.6 6.3 00:00 0.0
22/01 23:40 10.9 11.7 6.2 00:00 0.0
22/01 23:39 10.9 11.6 6.2 00:00 0.0
22/01 23:38 10.9 11.6 6.2 00:00 0.0
22/01 23:37 10.8 11.6 6.1 00:00 0.0
22/01 23:36 10.7 11.5 6.2 00:00 0.0
22/01 23:35 10.7 11.5 6.2 00:00 0.0
22/01 23:34 10.6 11.3 6.1 00:00 0.0
22/01 23:33 10.6 11.3 6.3 00:00 0.0
22/01 23:32 10.5 11.1 6.2 00:00 0.0
22/01 23:31 10.4 11.1 6.3 00:00 0.0
22/01 23:30 10.4 11 6.3 00:00 0.0
22/01 23:29 10.3 10.8 6.2 00:00 0.0
22/01 23:28 10.2 10.6 6.3 00:00 0.0
22/01 23:27 10.2 10.6 6.3 00:00 0.0
22/01 23:26 10.1 10.4 6.2 00:00 0.0
22/01 23:25 10.0 10.2 6.3 00:00 0.0
22/01 23:24 9.9 10.1 6.2 00:00 0.0
22/01 23:23 9.9 10 6.2 00:00 0.0
22/01 23:22 9.9 9.9 6.2 00:00 0.0
22/01 23:21 9.9 9.8 6.2 00:00 0.0
22/01 23:20 9.9 9.7 6.2 00:00 0.0
22/01 23:19 9.9 9.6 6.2 00:00 0.0
22/01 23:18 9.8 9.4 6.1 00:00 0.0
22/01 23:17 9.8 9.4 6.3 00:00 0.0
22/01 23:16 9.8 9.4 6.3 00:00 0.0
22/01 23:15 9.7 9.2 6.2 00:00 0.0
22/01 23:14 9.7 9.3 6.2 00:00 0.0
22/01 23:13 9.7 9.3 6.2 00:00 0.0
22/01 23:12 9.7 9.3 6.2 00:00 0.0
22/01 23:11 9.7 9.3 6.2 00:00 0.0
22/01 23:10 9.7 9.4 6.2 00:00 0.0
22/01 23:09 9.7 9.5 6.2 00:00 0.0
22/01 23:08 9.6 9.4 6.1 00:00 0.0
22/01 23:07 9.6 9.3 6.1 00:00 0.0
22/01 23:06 9.5 9.1 6.2 00:00 0.0
22/01 23:05 9.5 9 6.2 00:00 0.0
22/01 23:04 9.4 8.8 6.1 00:00 0.0
22/01 23:03 9.3 8.5 6.2 00:00 0.0
22/01 23:02 9.3 8.3 6.4 00:00 0.0
22/01 23:01 9.3 8.2 6.2 00:00 0.0
22/01 23:00 9.3 8 6.2 00:00 0.0
22/01 22:59 9.3 7.8 6.2 00:00 0.0
22/01 22:58 9.3 7.7 6.2 00:00 0.0
22/01 22:57 9.3 7.7 6.2 00:00 0.0
22/01 22:56 9.3 7.6 6.2 00:00 0.0
22/01 22:55 9.3 7.6 6.2 00:00 0.0
22/01 22:54 9.3 7.5 6.2 00:00 0.0
22/01 22:53 9.3 7.5 6.2 00:00 0.0
22/01 22:52 9.3 7.4 6.2 00:00 0.0
22/01 22:51 9.3 7.4 6.2 00:00 0.0
22/01 22:50 9.2 7.2 6.1 00:00 0.0
22/01 22:49 9.2 7.2 6.3 00:00 0.0
22/01 22:48 9.1 7.1 6.2 00:00 0.0
22/01 22:47 9.1 7.1 6.2 00:00 0.0
22/01 22:46 9.0 6.9 6.2 00:00 0.0
22/01 22:45 9.0 6.9 6.2 00:00 0.0
22/01 22:44 8.9 6.7 6.1 00:00 0.0
22/01 22:43 8.9 6.7 6.1 00:00 0.0
22/01 22:42 8.9 6.8 6.1 00:00 0.0
22/01 22:41 8.9 6.8 6.1 00:00 0.0
22/01 22:40 8.9 6.8 6.1 00:00 0.0
22/01 22:39 8.9 6.8 6.1 00:00 0.0
22/01 22:38 8.9 6.7 6.1 00:00 0.0
22/01 22:37 8.8 6.6 6 00:00 0.0
22/01 22:36 8.8 6.5 6 00:00 0.0
22/01 22:35 8.8 6.5 6 00:00 0.0
22/01 22:34 8.8 6.5 6 00:00 0.0
22/01 22:33 8.8 6.5 6 00:00 0.0
22/01 22:32 8.7 6.3 5.9 00:00 0.0
22/01 22:31 8.7 6.3 5.9 00:00 0.0
22/01 22:30 8.7 6.3 5.9 00:00 0.0
22/01 22:29 8.7 6.3 5.9 00:00 0.0
22/01 22:28 8.7 6.3 5.9 00:00 0.0
22/01 22:27 8.7 6.3 5.9 00:00 0.0
22/01 22:26 8.7 6.3 5.9 00:00 0.0
22/01 22:25 8.7 6.3 5.9 00:00 0.0
22/01 22:24 8.7 6.3 5.9 00:00 0.0
22/01 22:23 8.7 6.3 5.8 00:00 0.0
22/01 22:22 8.7 6.3 5.8 00:00 0.0
22/01 22:21 8.7 6.2 5.8 00:00 0.0
22/01 22:20 8.7 6.2 5.8 00:00 0.0
22/01 22:19 8.7 6.1 5.8 00:00 0.0
22/01 22:18 8.8 6.2 5.9 00:00 0.0
22/01 22:17 8.8 6.2 5.7 00:00 0.0
22/01 22:16 8.8 6.1 5.7 00:00 0.0
22/01 22:15 8.7 6 5.8 00:00 0.0
22/01 22:14 8.7 6.1 5.8 00:00 0.0
22/01 22:13 8.7 6.1 5.8 00:00 0.0
22/01 22:12 8.7 6.1 5.8 00:00 0.0
22/01 22:11 8.7 6.1 5.8 00:00 0.0
22/01 22:10 8.7 6.2 5.8 00:00 0.0
22/01 22:09 8.7 6.2 5.8 00:00 0.0
22/01 22:08 8.6 6.1 5.7 00:00 0.0
22/01 22:07 8.6 6.2 5.8 00:00 0.0
22/01 22:06 8.6 6.2 5.8 00:00 0.0
22/01 22:05 8.6 6.2 5.8 00:00 0.0
22/01 22:04 8.5 6.2 5.7 00:00 0.0
22/01 22:03 8.5 6.1 5.7 00:00 0.0
22/01 22:02 8.5 6.1 5.7 00:00 0.0
22/01 22:01 8.5 6.2 5.7 00:00 0.0
22/01 22:00 8.6 6.3 5.8 00:00 0.0
22/01 21:59 8.6 6.3 5.8 00:00 0.0
22/01 21:58 8.6 6.4 5.8 00:00 0.0
22/01 21:57 8.6 6.4 5.8 00:00 0.0
22/01 21:56 8.6 6.3 5.7 00:00 0.0
22/01 21:55 8.6 6.4 5.7 00:00 0.0
22/01 21:54 8.7 6.5 5.8 00:00 0.0
22/01 21:53 8.7 6.4 5.8 00:00 0.0
22/01 21:52 8.7 6.4 5.6 00:00 0.0
22/01 21:51 8.7 6.3 5.6 00:00 0.0
22/01 21:50 8.7 6.3 5.6 00:00 0.0
22/01 21:49 8.7 6.2 5.6 00:00 0.0
22/01 21:48 8.7 6.2 5.8 00:00 0.0
22/01 21:47 8.7 6.2 5.8 00:00 0.0
22/01 21:46 8.6 6 5.7 00:00 0.0
22/01 21:45 8.6 6 5.7 00:00 0.0
22/01 21:44 8.6 6 5.8 00:00 0.0
22/01 21:43 8.6 6 5.8 00:00 0.0
22/01 21:42 8.6 6.1 5.7 00:00 0.0
22/01 21:41 8.7 6.2 5.8 00:00 0.0
22/01 21:40 8.7 6.3 5.8 00:00 0.0
22/01 21:39 8.7 6.3 5.6 00:00 0.0
22/01 21:38 8.7 6.3 5.6 00:00 0.0
22/01 21:37 8.7 6.4 5.6 00:00 0.0
22/01 21:36 8.8 6.5 5.7 00:00 0.0
22/01 21:35 8.8 6.5 5.5 00:00 0.0
22/01 21:34 8.8 6.6 5.5 00:00 0.0
22/01 21:33 8.9 6.7 5.6 00:00 0.0
22/01 21:32 8.8 6.7 5.5 00:00 0.0
22/01 21:31 8.8 6.7 5.5 00:00 0.0
22/01 21:30 8.8 6.7 5.7 00:00 0.0
22/01 21:29 8.8 6.7 5.5 00:00 0.0
22/01 21:28 8.8 6.8 5.5 00:00 0.0
22/01 21:27 8.9 7 5.6 00:00 0.0
22/01 21:26 8.9 7.1 5.4 00:00 0.0
22/01 21:25 8.9 7.1 5.4 00:00 0.0
22/01 21:24 8.9 7.2 5.6 00:00 0.0
22/01 21:23 8.8 7.2 5.5 00:00 0.0
22/01 21:22 8.8 7.2 5.5 00:00 0.0
22/01 21:21 8.9 7.4 5.4 00:00 0.0
22/01 21:20 8.9 7.4 5.4 00:00 0.0
22/01 21:19 8.9 7.4 5.2 00:00 0.0
22/01 21:18 8.9 7.5 5.2 00:00 0.0
22/01 21:17 8.9 7.5 5.2 00:00 0.0
22/01 21:16 8.9 7.5 5.2 00:00 0.0
22/01 21:15 8.9 7.4 5.2 00:00 0.0
22/01 21:14 8.9 7.4 5.2 00:00 0.0
22/01 21:13 8.9 7.3 5.2 00:00 0.0
22/01 21:12 8.9 7.3 5.2 00:00 0.0
22/01 21:11 8.9 7.3 5.2 00:00 0.0
22/01 21:10 8.9 7.3 5.2 00:00 0.0
22/01 21:09 8.9 7.4 5.2 00:00 0.0
22/01 21:08 8.9 7.4 5.2 00:00 0.0
22/01 21:07 8.9 7.4 5.2 00:00 0.0
22/01 21:06 8.9 7.4 5.2 00:00 0.0
22/01 21:05 8.9 7.3 5 00:00 0.0
22/01 21:04 8.9 7.4 5 00:00 0.0
22/01 21:03 9.0 7.5 5.1 00:00 0.0
22/01 21:02 9.0 7.5 5.1 00:00 0.0
22/01 21:01 9.0 7.5 5.1 00:00 0.0
22/01 21:00 9.0 7.5 5.1 00:00 0.0
22/01 20:59 9.0 7.5 5.1 00:00 0.0
22/01 20:58 9.0 7.5 4.9 00:00 0.0
22/01 20:57 9.1 7.6 5 00:00 0.0
22/01 20:56 9.1 7.6 5 00:00 0.0
22/01 20:55 9.1 7.7 5 00:00 0.0
22/01 20:54 9.1 7.7 5 00:00 0.0
22/01 20:53 9.1 7.7 5 00:00 0.0
22/01 20:52 9.0 7.6 5.1 00:00 0.0
22/01 20:51 9.0 7.6 5.1 00:00 0.0
22/01 20:50 9.0 7.6 5.1 00:00 0.0
22/01 20:49 9.0 7.7 5.1 00:00 0.0
22/01 20:48 9.0 7.7 5.1 00:00 0.0
22/01 20:47 9.0 7.8 5.1 00:00 0.0
22/01 20:46 9.0 7.9 4.9 00:00 0.0
22/01 20:45 9.0 7.9 4.9 00:00 0.0
22/01 20:44 9.0 7.9 4.9 00:00 0.0
22/01 20:43 9.0 7.9 4.9 00:00 0.0
22/01 20:42 9.1 8.1 4.9 00:00 0.0
22/01 20:41 9.2 8.3 5 00:00 0.0
22/01 20:40 9.2 8.3 5 00:00 0.0
22/01 20:39 9.2 8.4 5 00:00 0.0
22/01 20:38 9.2 8.4 5 00:00 0.0
22/01 20:37 9.2 8.4 5 00:00 0.0
22/01 20:36 9.2 8.3 5 00:00 0.0
22/01 20:35 9.2 8.3 5 00:00 0.0
22/01 20:34 9.1 8.2 4.9 00:00 0.0
22/01 20:33 9.1 8.3 4.9 00:00 0.0
22/01 20:32 9.1 8.3 4.9 00:00 0.0
22/01 20:31 9.1 8.4 4.9 00:00 0.0
22/01 20:30 9.1 8.4 4.9 00:00 0.0
22/01 20:29 9.1 8.4 4.9 00:00 0.0
22/01 20:28 9.1 8.5 4.9 00:00 0.0
22/01 20:27 9.1 8.5 4.9 00:00 0.0
22/01 20:26 9.1 8.6 4.9 00:00 0.0
22/01 20:25 9.0 8.5 4.8 00:00 0.0
22/01 20:24 9.0 8.5 4.8 00:00 0.0
22/01 20:23 9.0 8.6 4.8 00:00 0.0
22/01 20:22 9.0 8.6 4.8 00:00 0.0
22/01 20:21 9.0 8.5 4.9 00:00 0.0
22/01 20:20 9.0 8.4 4.9 00:00 0.0
22/01 20:19 9.0 8.3 4.9 00:00 0.0
22/01 20:18 9.0 8.2 4.9 00:00 0.0
22/01 20:17 9.0 8.1 4.9 00:00 0.0
22/01 20:16 9.0 8.1 4.9 00:00 0.0
22/01 20:15 9.0 8 4.9 00:00 0.0
22/01 20:14 9.0 8 4.9 00:00 0.0
22/01 20:13 9.0 8 4.9 00:00 0.0
22/01 20:12 9.1 8.1 5 00:00 0.0
22/01 20:11 9.1 8.1 4.9 00:00 0.0
22/01 20:10 9.1 8.1 4.9 00:00 0.0
22/01 20:09 9.1 8.1 4.9 00:00 0.0
22/01 20:08 9.0 8 4.8 00:00 0.0
22/01 20:07 9.0 8 4.9 00:00 0.0
22/01 20:06 9.0 8.2 4.9 00:00 0.0
22/01 20:05 9.1 8.2 5 00:00 0.0
22/01 20:04 9.1 8.2 4.9 00:00 0.0
22/01 20:03 9.1 8.1 4.9 00:00 0.0
22/01 20:02 9.2 8.2 5 00:00 0.0
22/01 20:01 9.2 8 4.8 00:00 0.0
22/01 20:00 9.3 8.1 4.9 00:00 0.0
22/01 19:59 9.3 8.1 4.9 00:00 0.0
22/01 19:58 9.2 8.1 4.8 00:00 0.0
22/01 19:57 9.1 8 4.7 00:00 0.0
22/01 19:56 9.1 8 4.9 00:00 0.0
22/01 19:55 9.1 7.9 4.9 00:00 0.0
22/01 19:54 9.1 7.9 4.9 00:00 0.0
22/01 19:53 9.1 7.9 4.9 00:00 0.0
22/01 19:52 9.2 8 5 00:00 0.0
22/01 19:51 9.2 8 5 00:00 0.0
22/01 19:50 9.2 8.1 4.8 00:00 0.0
22/01 19:49 9.2 8.1 4.8 00:00 0.0
22/01 19:48 9.2 8 4.8 00:00 0.0
22/01 19:47 9.2 7.9 4.8 00:00 0.0
22/01 19:46 9.3 8 4.9 00:00 0.0
22/01 19:45 9.3 8 4.9 00:00 0.0
22/01 19:44 9.3 8.1 4.9 00:00 0.0
22/01 19:43 9.3 8.2 4.7 00:00 0.0
22/01 19:42 9.4 8.4 4.8 00:00 0.0
22/01 19:41 9.4 8.5 4.8 00:00 0.0
22/01 19:40 9.4 8.6 4.6 00:00 0.0
22/01 19:39 9.4 8.7 4.6 00:00 0.0
22/01 19:38 9.4 8.8 4.6 00:00 0.0
22/01 19:37 9.5 9 4.7 00:00 0.0
22/01 19:36 9.6 9.2 4.5 00:00 0.0
22/01 19:35 9.6 9.2 4.5 00:00 0.0
22/01 19:34 9.7 9.3 4.4 00:00 0.0
22/01 19:33 9.8 9.4 4.3 00:00 0.0
22/01 19:32 9.9 9.5 4.4 00:00 0.0
22/01 19:31 9.9 9.4 4.2 00:00 0.0
22/01 19:30 10.0 9.4 4.1 00:00 0.0
22/01 19:29 10.0 9.3 4.1 00:00 0.0
22/01 19:28 10.1 9.4 4.2 00:00 0.0
22/01 19:27 10.1 9.3 4.2 00:00 0.0
22/01 19:26 10.1 9.2 4.2 00:00 0.0
22/01 19:25 10.1 9.2 4.2 00:00 0.0
22/01 19:24 10.1 9.2 4 00:00 0.0
22/01 19:23 10.1 9.2 4 00:00 0.0
22/01 19:22 10.1 9.3 4 00:00 0.0
22/01 19:21 10.2 9.4 4.1 00:00 0.0
22/01 19:20 10.1 9.3 4.2 00:00 0.0
22/01 19:19 10.1 9.4 4.2 00:00 0.0
22/01 19:18 10.1 9.4 4.2 00:00 0.0
22/01 19:17 10.0 9.3 4.1 00:00 0.0
22/01 19:16 10.0 9.4 4.1 00:00 0.0
22/01 19:15 10.0 9.5 4.1 00:00 0.0
22/01 19:14 10.0 9.6 4.1 00:00 0.0
22/01 19:13 10.0 9.6 4.1 00:00 0.0
22/01 19:12 10.0 9.6 4.1 00:00 0.0
22/01 19:11 10.0 9.6 4.1 00:00 0.0
22/01 19:10 10.0 9.7 4.1 00:00 0.0
22/01 19:09 10.0 9.8 4.1 00:00 0.0
22/01 19:08 10.0 9.8 4.1 00:00 0.0
22/01 19:07 9.9 9.7 4 00:00 0.0
22/01 19:06 9.9 9.6 4 00:00 0.0
22/01 19:05 9.9 9.6 4 00:00 0.0
22/01 19:04 9.9 9.6 4 00:00 0.0
22/01 19:03 10.0 9.6 4.1 00:00 0.0
22/01 19:02 10.0 9.6 4.1 00:00 0.0
22/01 19:01 10.0 9.6 4.1 00:00 0.0
22/01 19:00 10.0 9.6 3.9 00:00 0.0
22/01 18:59 10.0 9.6 3.9 00:00 0.0
22/01 18:58 10.0 9.7 3.9 00:00 0.0
22/01 18:57 9.9 9.6 3.8 00:00 0.0
22/01 18:56 9.9 9.6 4 00:00 0.0
22/01 18:55 9.8 9.6 3.9 00:00 0.0
22/01 18:54 9.8 9.5 3.9 00:00 0.0
22/01 18:53 9.8 9.6 3.9 00:00 0.0
22/01 18:52 9.7 9.7 3.8 00:00 0.0
22/01 18:51 9.7 9.7 3.8 00:00 0.0
22/01 18:50 9.7 9.7 3.8 00:00 0.0
22/01 18:49 9.7 9.7 3.8 00:00 0.0
22/01 18:48 9.7 9.6 3.8 00:00 0.0
22/01 18:47 9.7 9.6 3.8 00:00 0.0
22/01 18:46 9.7 9.7 4 00:00 0.0
22/01 18:45 9.7 9.8 4 00:00 0.0
22/01 18:44 9.7 9.8 4 00:00 0.0
22/01 18:43 9.7 9.8 4 00:00 0.0
22/01 18:42 9.7 9.9 4 00:00 0.0
22/01 18:41 9.7 9.9 4 00:00 0.0
22/01 18:40 9.7 9.8 4 00:00 0.0
22/01 18:39 9.7 9.8 4 00:00 0.0
22/01 18:38 9.7 9.8 4 00:00 0.0
22/01 18:37 9.7 9.9 3.8 00:00 0.0
22/01 18:36 9.7 9.9 3.8 00:00 0.0
22/01 18:35 9.7 10 3.8 00:00 0.0
22/01 18:34 9.7 9.9 3.8 00:00 0.0
22/01 18:33 9.7 9.8 3.8 00:00 0.0
22/01 18:32 9.7 9.7 3.8 00:00 0.0
22/01 18:31 9.8 9.7 3.9 00:00 0.0
22/01 18:30 9.8 9.6 3.9 00:00 0.0
22/01 18:29 9.8 9.7 3.9 00:00 0.0
22/01 18:28 9.8 9.7 3.9 00:00 0.0
22/01 18:27 9.8 9.7 3.9 00:00 0.0
22/01 18:26 9.8 9.7 3.9 00:00 0.0
22/01 18:25 9.8 9.7 3.9 00:00 0.0
22/01 18:24 9.8 9.6 3.9 00:00 0.0
22/01 18:23 9.8 9.6 3.9 00:00 0.0
22/01 18:22 9.8 9.6 3.9 00:00 0.0
22/01 18:21 9.7 9.4 3.8 00:00 0.0
22/01 18:20 9.7 9.5 3.8 00:00 0.0
22/01 18:19 9.7 9.5 3.8 00:00 0.0
22/01 18:18 9.7 9.4 3.8 00:00 0.0
22/01 18:17 9.8 9.4 3.9 00:00 0.0
22/01 18:16 9.8 9.3 3.9 00:00 0.0
22/01 18:15 9.8 9.2 3.9 00:00 0.0
22/01 18:14 9.8 9.1 3.9 00:00 0.0
22/01 18:13 9.8 9.1 3.9 00:00 0.0
22/01 18:12 9.8 9 3.9 00:00 0.0
22/01 18:11 9.8 9 3.9 00:00 0.0
22/01 18:10 9.8 8.9 3.9 00:00 0.0
22/01 18:09 9.8 8.9 4.1 00:00 0.0
22/01 18:08 9.8 8.9 4.1 00:00 0.0
22/01 18:07 9.8 8.9 3.9 00:00 0.0
22/01 18:06 9.8 8.9 3.9 00:00 0.0
22/01 18:05 9.8 8.8 3.9 00:00 0.0
22/01 18:04 9.8 8.9 3.9 00:00 0.0
22/01 18:03 9.8 8.9 3.9 00:00 0.0
22/01 18:02 9.8 8.9 3.9 00:00 0.0
22/01 18:01 9.8 8.9 3.9 00:00 0.0
22/01 18:00 9.8 8.9 3.9 00:00 0.0
22/01 17:59 9.8 8.9 3.9 00:00 0.0
22/01 17:58 9.8 8.9 4.1 00:00 0.0
22/01 17:57 9.7 8.8 4 00:00 0.0
22/01 17:56 9.8 8.9 4.1 00:00 0.0
22/01 17:55 9.7 8.8 4 00:00 0.0
22/01 17:54 9.7 8.9 4 00:00 0.0
22/01 17:53 9.8 9 4.1 00:00 0.0
22/01 17:52 9.8 9 3.9 00:00 0.0
22/01 17:51 9.8 8.9 3.9 00:00 0.0
22/01 17:50 9.8 9 3.9 00:00 0.0
22/01 17:49 9.8 9 3.9 00:00 0.0
22/01 17:48 9.8 9 3.9 00:00 0.0
22/01 17:47 9.8 9 3.9 00:00 0.0
22/01 17:46 9.8 9 3.9 00:00 0.0
22/01 17:45 9.8 9 3.9 00:00 0.0
22/01 17:44 9.8 9 3.9 00:00 0.0
22/01 17:43 9.8 8.9 3.9 00:00 0.0
22/01 17:42 9.8 8.9 3.9 00:00 0.0
22/01 17:41 9.8 9 3.9 00:00 0.0
22/01 17:40 9.8 9 3.9 00:00 0.0
22/01 17:39 9.8 9.1 3.9 00:00 0.0
22/01 17:38 9.8 9.1 3.9 00:00 0.0
22/01 17:37 9.8 9.1 3.9 00:00 0.0
22/01 17:36 9.8 9 3.9 00:00 0.0
22/01 17:35 9.8 9 3.9 00:00 0.0
22/01 17:34 9.8 9 3.9 00:00 0.0
22/01 17:33 9.8 9 3.9 00:00 0.0
22/01 17:32 9.8 9 3.9 00:00 0.0
22/01 17:31 9.8 9 3.9 00:00 0.0
22/01 17:30 9.8 9 3.9 00:00 0.0
22/01 17:29 9.8 8.9 3.9 00:00 0.0
22/01 17:28 9.8 9 3.9 00:00 0.0
22/01 17:27 9.9 9.1 4 00:00 0.0
22/01 17:26 9.8 8.9 3.9 00:00 0.0
22/01 17:25 9.8 9 3.9 00:00 0.0
22/01 17:24 9.8 9 3.9 00:00 0.0
22/01 17:23 9.8 9 4.1 00:00 0.0
22/01 17:22 9.8 9.1 4.1 00:00 0.0
22/01 17:21 9.8 9.1 4.1 00:00 0.0
22/01 17:20 9.8 9 4.1 00:00 0.0
22/01 17:19 9.8 9 4.1 00:00 0.0
22/01 17:18 9.8 9.1 4.1 00:00 0.0
22/01 17:17 9.8 9 4.1 00:00 0.0
22/01 17:16 9.8 9 4.1 00:00 0.0
22/01 17:15 9.8 9.1 4.1 00:00 0.0
22/01 17:14 9.8 9.1 4.1 00:00 0.0
22/01 17:13 9.8 9.1 4.1 00:00 0.0
22/01 17:12 9.8 9 4.1 00:00 0.0
22/01 17:11 9.8 9 4.1 00:00 0.0
22/01 17:10 9.8 8.9 4.1 00:00 0.0
22/01 17:09 9.8 8.9 4.1 00:00 0.0
22/01 17:08 9.8 8.9 4.1 00:00 0.0
22/01 17:07 9.8 8.9 4.1 00:00 0.0
22/01 17:06 9.8 8.9 4.1 00:00 0.0
22/01 17:05 9.8 8.9 4.1 00:00 0.0
22/01 17:04 9.8 9 4.1 00:00 0.0
22/01 17:03 9.8 8.9 4.1 00:00 0.0
22/01 17:02 9.8 9 4.1 00:00 0.0
22/01 17:01 9.8 9 4.1 00:00 0.0
22/01 17:00 9.8 9 4.1 00:00 0.0
22/01 16:59 9.8 9 4.1 00:00 0.0
22/01 16:58 9.8 9 4.1 00:00 0.0
22/01 16:57 9.8 9 4.1 00:00 0.0
22/01 16:56 9.8 9 4.1 00:00 0.0
22/01 16:55 9.8 9 4.1 00:00 0.0
22/01 16:54 9.8 9 4.1 00:00 0.0
22/01 16:53 9.8 8.9 4.1 00:00 0.0
22/01 16:52 9.8 8.9 4.1 00:00 0.0
22/01 16:51 9.8 8.9 4.1 00:00 0.0
22/01 16:50 9.8 8.9 4.3 00:00 0.0
22/01 16:49 9.8 8.9 4.3 00:00 0.0
22/01 16:48 9.8 8.9 4.3 00:00 0.0
22/01 16:47 9.8 8.9 4.3 00:00 0.0
22/01 16:46 9.8 9 4.3 00:00 0.0
22/01 16:45 9.8 9 4.3 00:00 0.0
22/01 16:44 9.8 9.1 4.3 00:00 0.0
22/01 16:43 9.8 9.1 4.3 00:00 0.0
22/01 16:42 9.8 9 4.3 00:00 0.0
22/01 16:41 9.7 8.9 4.2 00:00 0.0
22/01 16:40 9.7 9 4.2 00:00 0.0
22/01 16:39 9.7 8.9 4.2 00:00 0.0
22/01 16:38 9.7 9 4.2 00:00 0.0
22/01 16:37 9.7 9 4.2 00:00 0.0
22/01 16:36 9.7 9 4.2 00:00 0.0
22/01 16:35 9.7 9.1 4.2 00:00 0.0
22/01 16:34 9.7 9.2 4.2 00:00 0.0
22/01 16:33 9.8 9.3 4.3 00:00 0.0
22/01 16:32 9.8 9.4 4.3 00:00 0.0
22/01 16:31 9.8 9.4 4.3 00:00 0.0
22/01 16:30 9.8 9.5 4.3 00:00 0.0
22/01 16:29 9.8 9.6 4.3 00:00 4.0
22/01 16:28 9.8 9.7 4.1 00:00 4.0
22/01 16:27 9.8 9.7 4.1 00:00 4.0
22/01 16:26 9.8 9.8 4.1 00:00 4.0
22/01 16:25 9.8 9.8 4.1 00:00 4.0
22/01 16:24 9.8 9.8 4.1 00:00 4.0
22/01 16:23 9.8 9.6 4.1 00:00 4.0
22/01 16:22 9.8 9.6 4.1 00:00 4.0
22/01 16:21 9.8 9.5 4.1 00:00 4.0
22/01 16:20 9.8 9.4 4.1 00:00 4.0
22/01 16:19 9.8 9.4 4.1 00:00 4.0
22/01 16:18 9.8 9.4 4.1 00:00 4.0
22/01 16:17 9.8 9.4 4.1 00:00 4.0
22/01 16:16 9.8 9.3 4.1 00:00 4.0
22/01 16:15 9.8 9.3 4.1 00:00 4.0
22/01 16:14 9.8 9.3 4.1 00:00 4.0
22/01 16:13 9.8 9.3 4.1 00:00 6.0
22/01 16:12 9.8 9.4 4.1 00:00 6.0
22/01 16:11 9.8 9.4 4.1 00:00 6.0
22/01 16:10 9.8 9.4 4.1 00:00 6.0
22/01 16:09 9.8 9.4 4.1 00:00 6.0
22/01 16:08 9.8 9.4 4.1 00:00 6.0
22/01 16:07 9.8 9.4 4.1 00:00 6.0
22/01 16:06 9.8 9.4 4.1 00:00 6.0
22/01 16:05 9.7 9.2 4 00:00 6.0
22/01 16:04 9.7 9.2 4 00:00 6.0
22/01 16:03 9.7 9.2 4 00:00 8.0
22/01 16:02 9.7 9 4 00:00 8.0
22/01 16:01 9.7 8.9 4 00:00 8.0
22/01 16:00 9.7 8.8 4 00:00 8.0
22/01 15:59 9.7 8.8 4 00:00 8.0
22/01 15:58 9.7 8.8 4 00:00 8.0
22/01 15:57 9.7 8.9 4 00:00 8.0
22/01 15:56 9.7 8.8 4 00:00 8.0
22/01 15:55 9.7 8.8 4.2 00:00 10.0
22/01 15:54 9.7 8.7 4.2 00:00 8.0
22/01 15:53 9.6 8.6 4.1 00:00 10.0
22/01 15:52 9.6 8.5 4.1 00:00 10.0
22/01 15:51 9.6 8.5 4.1 00:00 10.0
22/01 15:50 9.6 8.6 4.1 00:00 12.0
22/01 15:49 9.6 8.5 4.1 00:00 12.0
22/01 15:48 9.6 8.5 4.3 00:00 12.0
22/01 15:47 9.6 8.5 4.3 00:00 12.0
22/01 15:46 9.6 8.4 4.3 00:00 14.0
22/01 15:45 9.6 8.4 4.3 00:00 14.0
22/01 15:44 9.6 8.4 4.3 00:00 14.0
22/01 15:43 9.5 8.3 4.2 00:00 14.0
22/01 15:42 9.5 8.3 4.2 00:00 16.0
22/01 15:41 9.5 8.3 4.2 00:00 16.0
22/01 15:40 9.5 8.3 4.2 00:00 16.0
22/01 15:39 9.5 8.4 4.2 00:00 16.0
22/01 15:38 9.5 8.4 4.2 00:00 16.0
22/01 15:37 9.5 8.4 4.4 00:00 16.0
22/01 15:36 9.5 8.4 4.2 00:00 16.0
22/01 15:35 9.4 8.3 4.4 00:00 16.0
22/01 15:34 9.4 8.3 4.4 00:00 16.0
22/01 15:33 9.4 8.3 4.4 00:00 16.0
22/01 15:32 9.4 8.3 4.4 00:00 18.0
22/01 15:31 9.4 8.3 4.4 00:00 18.0
22/01 15:30 9.4 8.3 4.4 00:00 18.0
22/01 15:29 9.4 8.3 4.4 00:00 18.0
22/01 15:28 9.4 8.4 4.4 00:00 18.0
22/01 15:27 9.4 8.4 4.4 00:00 20.0
22/01 15:26 9.4 8.5 4.6 00:00 20.0
22/01 15:25 9.3 8.4 4.5 00:00 20.0
22/01 15:24 9.3 8.4 4.5 00:00 18.0
22/01 15:23 9.3 8.4 4.5 00:00 18.0
22/01 15:22 9.4 8.5 4.6 00:00 18.0
22/01 15:21 9.4 8.5 4.6 00:00 18.0
22/01 15:20 9.4 8.5 4.6 00:00 20.0
22/01 15:19 9.4 8.5 4.6 00:00 18.0
22/01 15:18 9.4 8.5 4.6 00:00 20.0
22/01 15:17 9.4 8.4 4.6 00:00 20.0
22/01 15:16 9.4 8.5 4.6 00:00 22.0
22/01 15:15 9.4 8.4 4.6 00:00 22.0
22/01 15:14 9.3 8.3 4.5 00:00 24.0
22/01 15:13 9.3 8.3 4.5 00:00 26.0
22/01 15:12 9.3 8.4 4.5 00:00 26.0
22/01 15:11 9.3 8.4 4.5 00:00 24.0
22/01 15:10 9.3 8.4 4.5 00:00 24.0
22/01 15:09 9.3 8.4 4.5 00:00 26.0
22/01 15:08 9.3 8.4 4.5 00:00 26.0
22/01 15:07 9.3 8.4 4.5 00:00 28.0
22/01 15:06 9.3 8.4 4.5 00:00 26.0
22/01 15:04 9.3 8.3 4.5 00:00 24.0
22/01 15:03 9.3 8.3 4.5 00:00 24.0
22/01 15:02 9.3 8.2 4.5 00:00 24.0
22/01 15:01 9.3 8.1 4.3 00:00 24.0
22/01 15:00 9.3 8.1 4.3 00:00 22.0
22/01 14:59 9.3 8 4.5 00:00 22.0
22/01 14:58 9.3 7.9 4.5 00:00 24.0
22/01 14:57 9.3 7.8 4.5 00:00 24.0
22/01 14:56 9.3 7.7 4.5 00:00 24.0
22/01 14:55 9.3 7.7 4.5 00:00 24.0
22/01 14:54 9.3 7.6 4.5 00:00 24.0
22/01 14:53 9.3 7.6 4.5 00:00 24.0
22/01 14:52 9.3 7.6 4.5 00:00 24.0
22/01 14:51 9.3 7.6 4.5 00:00 22.0
22/01 14:50 9.3 7.6 4.5 00:00 20.0
22/01 14:49 9.3 7.6 4.5 00:00 20.0
22/01 14:48 9.3 7.6 4.5 00:00 22.0
22/01 14:47 9.2 7.5 4.4 00:00 20.0
22/01 14:46 9.2 7.5 4.4 00:00 20.0
22/01 14:45 9.2 7.5 4.4 00:00 22.0
22/01 14:44 9.2 7.4 4.4 00:00 22.0
22/01 14:43 9.2 7.4 4.4 00:00 22.0
22/01 14:42 9.2 7.4 4.4 00:00 22.0
22/01 14:41 9.2 7.4 4.4 00:00 24.0
22/01 14:40 9.2 7.3 4.4 00:00 24.0
22/01 14:39 9.2 7.3 4.4 00:00 24.0
22/01 14:38 9.2 7.3 4.4 00:00 26.0
22/01 14:37 9.2 7.3 4.4 00:00 28.0
22/01 14:36 9.1 7.1 4.3 00:00 30.0
22/01 14:35 9.1 7.1 4.3 00:00 32.0
22/01 14:34 9.1 7 4.3 00:00 30.0
22/01 14:33 9.1 7 4.3 00:00 30.0
22/01 14:32 9.1 7 4.5 00:00 30.0
22/01 14:31 9.1 7 4.5 00:00 30.0
22/01 14:30 9.1 6.9 4.5 00:00 30.0
22/01 14:29 9.1 6.9 4.5 00:00 30.0
22/01 14:28 9.1 6.9 4.5 00:00 32.0
22/01 14:27 9.0 6.8 4.4 00:00 32.0
22/01 14:26 9.0 6.7 4.4 00:00 32.0
22/01 14:25 9.0 6.7 4.4 00:00 32.0
22/01 14:24 9.0 6.7 4.4 00:00 32.0
22/01 14:23 9.0 6.7 4.6 00:00 34.0
22/01 14:22 9.0 6.7 4.6 00:00 34.0
22/01 14:21 9.0 6.7 4.6 00:00 32.0
22/01 14:20 9.0 6.7 4.6 00:00 32.0
22/01 14:19 9.0 6.7 4.6 00:00 32.0
22/01 14:18 9.0 6.7 4.6 00:00 32.0
22/01 14:17 9.0 6.6 4.6 00:00 34.0
22/01 14:16 9.0 6.6 4.6 00:00 34.0
22/01 14:15 9.0 6.6 4.6 00:00 34.0
22/01 14:14 9.0 6.6 4.6 00:00 32.0
22/01 14:13 9.0 6.6 4.6 00:00 32.0
22/01 14:12 9.0 6.6 4.6 00:00 34.0
22/01 14:11 9.0 6.5 4.6 00:00 44.0
22/01 14:10 9.0 6.5 4.6 00:00 40.0
22/01 14:09 9.0 6.6 4.6 00:00 36.0
22/01 14:08 9.0 6.5 4.4 00:00 36.0
22/01 14:07 9.0 6.5 4.4 00:00 36.0
22/01 14:06 9.0 6.5 4.4 00:00 36.0
22/01 14:05 9.0 6.5 4.4 00:00 38.0
22/01 14:04 9.0 6.5 4.4 00:00 40.0
22/01 14:03 9.0 6.5 4.4 00:00 42.0
22/01 14:02 9.0 6.4 4.4 00:00 44.0
22/01 14:01 9.0 6.4 4.4 00:00 46.0
22/01 14:00 9.0 6.4 4.4 00:00 48.0
22/01 13:59 9.0 6.4 4.2 00:00 50.0
22/01 13:58 9.0 6.4 4.2 00:00 50.0
22/01 13:57 9.1 6.6 4.3 00:00 52.0
22/01 13:56 9.1 6.7 4.3 00:00 66.0
22/01 13:55 9.1 6.8 4.3 00:00 66.0
22/01 13:54 9.1 6.8 4.3 00:00 60.0
22/01 13:53 9.1 6.8 4.3 00:00 56.0
22/01 13:52 9.1 6.8 4.3 00:00 50.0
22/01 13:51 9.1 6.9 4.3 00:00 48.0
22/01 13:50 9.1 7 4.3 00:00 50.0
22/01 13:49 9.1 7.1 4.3 00:00 48.0
22/01 13:48 9.1 7.1 4.3 00:00 46.0
22/01 13:47 9.1 7.1 4.3 00:00 42.0
22/01 13:46 9.1 7.1 4.3 00:00 40.0
22/01 13:45 9.0 7 4.2 00:00 36.0
22/01 13:44 9.0 7.1 4.2 00:00 34.0
22/01 13:43 9.0 7 4.2 00:00 34.0
22/01 13:42 9.0 7.1 4.2 00:00 32.0
22/01 13:41 9.0 7.1 4.2 00:00 32.0
22/01 13:40 9.0 7.1 4.2 00:00 34.0
22/01 13:39 9.0 7.1 4.2 00:00 38.0
22/01 13:38 9.0 7.1 4.2 00:00 40.0
22/01 13:37 9.0 7.1 4.2 00:00 38.0
22/01 13:36 9.0 7.1 4.2 00:00 34.0
22/01 13:35 9.0 7.1 4.2 00:00 30.0
22/01 13:34 9.0 7.1 4.2 00:00 24.0
22/01 13:33 9.0 7 4.2 00:00 20.0
22/01 13:32 9.0 7 4.2 00:00 16.0
22/01 13:31 9.0 7 4.2 00:00 14.0
22/01 13:30 9.0 7 4.2 00:00 14.0
22/01 13:29 9.0 7 4.2 00:00 16.0
22/01 13:28 9.0 6.9 4.2 00:00 14.0
22/01 13:27 9.0 6.9 4.2 00:00 12.0
22/01 13:26 9.0 6.9 4.2 00:00 12.0
22/01 13:25 9.0 6.8 4 00:00 12.0
22/01 13:24 9.1 6.9 4.1 00:00 12.0
22/01 13:23 9.1 7 4.1 00:00 12.0
22/01 13:22 9.1 7 4.1 00:00 12.0
22/01 13:21 9.1 7 3.9 00:00 12.0
22/01 13:20 9.2 7.2 4 00:00 14.0
22/01 13:19 9.1 7.1 3.9 00:00 12.0
22/01 13:18 9.1 7.2 3.9 00:00 12.0
22/01 13:17 9.1 7.2 3.9 00:00 14.0
22/01 13:16 9.1 7.3 3.9 00:00 16.0
22/01 13:15 9.1 7.3 3.9 00:00 20.0
22/01 13:14 9.1 7.3 3.9 00:00 20.0
22/01 13:13 9.1 7.3 3.9 00:00 16.0
22/01 13:12 9.1 7.3 3.9 00:00 14.0
22/01 13:11 9.2 7.3 4 00:00 14.0
22/01 13:10 9.1 7.3 3.9 00:00 14.0
22/01 13:09 9.1 7.2 3.9 00:00 14.0
22/01 13:08 9.1 7.2 3.9 00:00 14.0
22/01 13:07 9.1 7.2 3.9 00:00 12.0
22/01 13:06 9.1 7.2 3.9 00:00 12.0
22/01 13:05 9.1 7.2 3.9 00:00 14.0
22/01 13:04 9.1 7.3 4.1 00:00 14.0
22/01 13:03 9.1 7.2 4.1 00:00 16.0
22/01 13:02 9.1 7.3 4.1 00:00 16.0
22/01 13:01 9.1 7.4 4.1 00:00 16.0
22/01 13:00 9.1 7.4 4.1 00:00 16.0
22/01 12:59 9.1 7.3 4.1 00:00 18.0
22/01 12:58 9.1 7.2 4.1 00:00 18.0
22/01 12:57 9.1 7.2 4.1 00:00 18.0
22/01 12:56 9.1 7.3 4.1 00:00 16.0
22/01 12:55 9.1 7.3 3.9 00:00 14.0
22/01 12:54 9.2 7.4 4 00:00 14.0
22/01 12:53 9.2 7.4 4 00:00 14.0
22/01 12:52 9.2 7.5 4 00:00 12.0
22/01 12:51 9.2 7.4 4 00:00 12.0
22/01 12:50 9.2 7.3 4 00:00 12.0
22/01 12:49 9.2 7.4 4 00:00 12.0
22/01 12:48 9.2 7.5 4 00:00 14.0
22/01 12:47 9.2 7.6 4 00:00 14.0
22/01 12:46 9.2 7.7 4 00:00 14.0
22/01 12:45 9.2 7.7 4 00:00 14.0
22/01 12:44 9.2 7.6 4 00:00 14.0
22/01 12:43 9.2 7.5 4 00:00 16.0
22/01 12:42 9.2 7.5 4 00:00 18.0
22/01 12:41 9.1 7.4 3.9 00:00 20.0
22/01 12:40 9.1 7.5 3.9 00:00 20.0
22/01 12:38 9.1 7.6 3.9 00:00 20.0
22/01 12:37 9.1 7.5 3.9 00:00 20.0
22/01 12:36 9.1 7.5 3.9 00:00 20.0
22/01 12:35 9.1 7.3 4.1 00:00 20.0
22/01 12:34 9.1 7.3 4.1 00:00 18.0
22/01 12:33 9.1 7.3 4.1 00:00 16.0
22/01 12:32 9.1 7.4 4.1 00:00 12.0
22/01 12:31 9.1 7.4 4.1 00:00 12.0
22/01 12:30 9.1 7.4 4.1 00:00 12.0
22/01 12:29 9.1 7.3 4.1 00:00 14.0
22/01 12:28 9.1 7.3 4.1 00:00 14.0
22/01 12:27 9.1 7.2 4.1 00:00 12.0
22/01 12:26 9.1 7.2 4.1 00:00 12.0
22/01 12:25 9.1 7.1 4.1 00:00 12.0
22/01 12:24 9.1 7.1 4.1 00:00 12.0
22/01 12:23 9.1 7 4.1 00:00 12.0
22/01 12:22 9.1 7 4.1 00:00 14.0
22/01 12:21 9.1 6.9 4.1 00:00 14.0
22/01 12:20 9.1 6.8 3.9 00:00 14.0
22/01 12:19 9.1 6.8 4.1 00:00 14.0
22/01 12:18 9.1 6.8 4.1 00:00 14.0
22/01 12:17 9.1 6.8 4.1 00:00 14.0
22/01 12:16 9.1 6.8 4.1 00:00 16.0
22/01 12:15 9.1 6.7 3.9 00:00 18.0
22/01 12:14 9.1 6.7 3.9 00:00 16.0
22/01 12:13 9.1 6.7 3.9 00:00 16.0
22/01 12:12 9.1 6.7 3.9 00:00 16.0
22/01 12:11 9.1 6.8 4.1 00:00 14.0
22/01 12:10 9.1 6.8 3.9 00:00 14.0
22/01 12:09 9.1 6.9 3.9 00:00 14.0
22/01 12:08 9.2 7.1 4.2 00:00 14.0
22/01 12:07 9.2 7 4.2 00:00 14.0
22/01 12:06 9.2 7 4 00:00 16.0
22/01 12:05 9.2 7 4 00:00 18.0
22/01 12:04 9.2 7 4 00:00 22.0
22/01 12:03 9.2 7.1 4 00:00 24.0
22/01 12:02 9.2 7.2 4 00:00 26.0
22/01 12:01 9.2 7.2 4 00:00 22.0
22/01 12:00 9.2 7.1 4 00:00 26.0
22/01 11:59 9.2 7.1 4 00:00 30.0
22/01 11:58 9.2 7.1 4 00:00 32.0
22/01 11:57 9.2 7.1 4 00:00 30.0
22/01 11:56 9.2 7 3.7 00:00 24.0
22/01 11:55 9.2 7 3.7 00:00 20.0
22/01 11:53 9.2 7 4 00:00 14.0
22/01 11:52 9.2 6.9 3.7 00:00 14.0
22/01 11:51 9.2 6.9 3.7 00:00 16.0
22/01 11:50 9.2 6.9 3.7 00:00 18.0
22/01 11:49 9.2 6.9 3.7 00:00 18.0
22/01 11:48 9.2 6.9 3.5 00:00 20.0
22/01 11:47 9.2 6.9 3.5 00:00 20.0
22/01 11:46 9.2 6.9 3.5 00:00 20.0
22/01 11:45 9.2 7 3.5 00:00 20.0
22/01 11:44 9.2 7 3.5 00:00 20.0
22/01 11:43 9.2 6.9 3.5 00:00 18.0
22/01 11:42 9.2 7 3.5 00:00 20.0
22/01 11:41 9.2 7 3.5 00:00 24.0
22/01 11:40 9.2 7 3.5 00:00 22.0
22/01 11:39 9.2 7 3.5 00:00 24.0
22/01 11:38 9.3 7.1 3.6 00:00 26.0
22/01 11:37 9.3 7.1 3.6 00:00 20.0
22/01 11:36 9.3 7.1 3.6 00:00 18.0
22/01 11:35 9.3 7 3.6 00:00 18.0
22/01 11:34 9.3 7 3.6 00:00 20.0
22/01 11:33 9.3 7 3.6 00:00 22.0
22/01 11:32 9.3 7 3.6 00:00 24.0
22/01 11:31 9.2 7 3.3 00:00 28.0
22/01 11:30 9.2 7 3.3 00:00 28.0
22/01 11:29 9.2 7 3.3 00:00 26.0
22/01 11:28 9.2 7 3.3 00:00 22.0
22/01 11:27 9.1 6.9 3.4 00:00 24.0
22/01 11:26 9.1 7 3.4 00:00 22.0
22/01 11:25 9.1 7.1 3.4 00:00 18.0
22/01 11:24 9.1 7.2 3.7 00:00 18.0
22/01 11:23 9.0 7.2 3.6 00:00 20.0
22/01 11:22 9.0 7.3 3.8 00:00 26.0
22/01 11:21 9.0 7.3 3.8 00:00 34.0
22/01 11:20 9.0 7.4 3.8 00:00 38.0
22/01 11:19 9.0 7.3 3.8 00:00 34.0
22/01 11:18 8.9 7.2 3.7 00:00 32.0
22/01 11:16 8.9 7.3 3.9 00:00 28.0
22/01 11:14 8.9 7.1 3.9 00:00 24.0
22/01 11:13 8.9 7.1 3.9 00:00 28.0
22/01 11:12 8.8 6.9 3.8 00:00 28.0
22/01 11:11 8.8 6.9 4 00:00 26.0
22/01 11:10 8.8 6.9 4 00:00 26.0
22/01 11:09 8.8 6.9 4 00:00 26.0
22/01 11:08 8.8 6.9 4 00:00 24.0
22/01 11:06 8.8 7 4.2 00:00 20.0
22/01 11:05 8.8 7 4.2 00:00 18.0
22/01 11:04 8.8 7 4.2 00:00 18.0
22/01 11:03 8.8 7.1 4.2 00:00 16.0
22/01 11:02 8.8 7.1 4.2 00:00 16.0
22/01 11:01 8.8 7.1 4.2 00:00 18.0
22/01 11:00 8.9 7.2 4.3 00:00 18.0
22/01 10:59 8.9 7.2 4.3 00:00 20.0
22/01 10:58 8.9 7.2 4.3 00:00 18.0
22/01 10:56 8.9 7 4.1 00:00 20.0
22/01 10:55 8.9 7 4.1 00:00 20.0
22/01 10:54 8.9 6.9 4.1 00:00 14.0
22/01 10:53 8.9 6.9 4.1 00:00 16.0
22/01 10:52 8.9 6.9 4.1 00:00 16.0
22/01 10:51 8.9 6.9 4.1 00:00 16.0
22/01 10:50 8.9 6.9 4.1 00:00 12.0
22/01 10:49 8.9 6.9 4.1 00:00 10.0
22/01 10:48 9.0 7 4 00:00 10.0
22/01 10:47 9.0 7.1 4 00:00 10.0
22/01 10:46 9.0 7.1 4 00:00 12.0
22/01 10:45 9.0 7.1 4 00:00 12.0
22/01 10:44 9.0 7.2 3.8 00:00 14.0
22/01 10:43 9.0 7.3 3.8 00:00 14.0
22/01 10:42 9.0 7.3 3.8 00:00 12.0
22/01 10:41 9.0 7.4 3.8 00:00 12.0
22/01 10:40 9.0 7.4 3.8 00:00 12.0
22/01 10:39 9.0 7.4 3.6 00:00 12.0
22/01 10:38 9.0 7.4 3.6 00:00 12.0
22/01 10:37 9.0 7.5 3.6 00:00 12.0
22/01 10:36 9.0 7.5 3.6 00:00 12.0
22/01 10:35 9.0 7.5 3.6 00:00 12.0
22/01 10:34 9.0 7.6 3.8 00:00 14.0
22/01 10:33 9.0 7.6 3.8 00:00 12.0
22/01 10:32 9.0 7.6 3.8 00:00 12.0
22/01 10:31 9.0 7.6 3.8 00:00 10.0
22/01 10:30 9.0 7.6 3.8 00:00 12.0
22/01 10:29 9.0 7.5 3.8 00:00 14.0
22/01 10:28 9.0 7.5 3.8 00:00 16.0
22/01 10:27 9.0 7.5 3.8 00:00 16.0
22/01 10:26 9.0 7.4 3.8 00:00 14.0
22/01 10:25 9.0 7.3 4 00:00 12.0
22/01 10:24 9.0 7.3 4 00:00 10.0
22/01 10:23 9.0 7.2 4 00:00 8.0
22/01 10:22 9.0 7.2 4 00:00 6.0
22/01 10:21 9.0 7.2 3.8 00:00 6.0
22/01 10:20 9.0 7.2 3.8 00:00 6.0
22/01 10:19 9.0 7.2 3.8 00:00 6.0
22/01 10:18 9.0 7.2 4 00:00 6.0
22/01 10:17 9.0 7.2 4 00:00 6.0
22/01 10:16 9.0 7.3 4 00:00 6.0
22/01 10:15 9.0 7.3 4 00:00 6.0
22/01 10:14 9.0 7.2 4 00:00 6.0
22/01 10:13 8.9 7.1 3.9 00:00 6.0
22/01 10:12 9.0 7.2 4 00:00 6.0
22/01 10:11 9.0 7.2 4 00:00 8.0
22/01 10:10 9.0 7.1 4.2 00:00 8.0
22/01 10:09 9.0 7.1 4.2 00:00 8.0
22/01 10:08 9.0 7.1 4.2 00:00 10.0
22/01 10:07 9.0 7.1 4.2 00:00 10.0
22/01 10:06 9.0 7.1 4 00:00 12.0
22/01 10:04 9.0 7.2 4 00:00 12.0
22/01 10:03 9.0 7.2 4 00:00 14.0
22/01 10:02 9.0 7.2 4 00:00 16.0
22/01 10:01 9.0 7.2 4 00:00 18.0
22/01 10:00 9.0 7.2 4 00:00 24.0
22/01 09:59 9.0 7.2 4 00:00 24.0
22/01 09:58 9.0 7.3 4 00:00 22.0
22/01 09:56 9.0 7.3 4 00:00 24.0
22/01 09:54 9.0 7.2 4 00:00 24.0
22/01 09:53 9.0 7.1 3.8 00:00 20.0
22/01 09:52 9.0 7.2 3.8 00:00 18.0
22/01 09:51 9.0 7.2 3.8 00:00 18.0
22/01 09:50 9.0 7.2 3.8 00:00 18.0
22/01 09:49 9.0 7.2 3.8 00:00 18.0
22/01 09:48 9.0 7.2 3.8 00:00 18.0
22/01 09:47 9.0 7.2 3.8 00:00 18.0
22/01 09:46 9.0 7.1 3.6 00:00 16.0
22/01 09:45 9.0 7.2 3.6 00:00 18.0
22/01 09:44 9.0 7.2 3.6 00:00 24.0
22/01 09:43 9.0 7.2 3.6 00:00 22.0
22/01 09:42 9.0 7.2 3.6 00:00 16.0
22/01 09:41 9.0 7.3 3.6 00:00 14.0
22/01 09:40 9.0 7.2 3.6 00:00 14.0
22/01 09:39 9.1 7.3 3.7 00:00 16.0
22/01 09:38 9.1 7.3 3.7 00:00 18.0
22/01 09:37 9.1 7.3 3.7 00:00 22.0
22/01 09:36 9.1 7.3 3.7 00:00 24.0
22/01 09:35 9.1 7.2 3.7 00:00 16.0
22/01 09:34 9.1 7.2 3.7 00:00 16.0
22/01 09:33 9.1 7.1 3.7 00:00 16.0
22/01 09:32 9.0 7 3.6 00:00 14.0
22/01 09:31 9.1 7.1 3.7 00:00 12.0



    Load Time 0.064311 seconds